User: anonymous   Login
Location: Cahas Mountain Overlook
(37.0833°N, 80.1000°W)
Time: 02:49:49
(UTC-05:00)
Language:

Tiros 1 despin weight - Orbit

View from above orbital plane
View from above orbital plane
View from above satellite
View from above satellite

Ground track
Ground track

The orbit is defined by the following mean orbital elements,

1 00115U          26044.22937966 +.00000000 +00000-0 +32284-3 0 00002
2 00115  48.1635 350.3612 0026658  58.8633 301.4895 14.97298090    05
Epoch (UTC): 13 February 2026 05:30:18
Eccentricity: 0.0026658
inclination: 48.1635°
perigee height: 557 km
apogee height: 594 km
right ascension of ascending node: 350.3612°
argument of perigee: 58.8633°
revolutions per day: 14.97298090
mean anomaly at epoch: 301.4895°

The dashed part of the orbit path shows where the satellite is in the earth's shadow,  

DLR